Regional Weather Roundup
Issued by NWS

Home | Current Version | Previous Version | Graphics & Text | Print | Product List | Glossary On
Versions: 1 2 3 4 5 6 7 8 9 10 11 12 13 14 15 16 17 18 19 20 21 22 23 24 25 26 27 28 29 30 31 32 33 34 35 36 37 38 39 40 41 42 43 44 45 46 47 48 49 50
249
ASUS43 KDMX 280101
RWRIA

WEATHER ROUNDUP FOR IOWA
NATIONAL WEATHER SERVICE DES MOINES IA
800 PM CDT TUE JUN 27 2017

NOTE: "FAIR" INDICATES FEW OR NO CLOUDS BELOW 12,000 FEET WITH NO
SIGNIFICANT WEATHER AND/OR OBSTRUCTIONS TO VISIBILITY.

* - THESE STATIONS ARE NOT NWS STATIONS...THUS NOT UNDER NWS
QUALITY CONTROL.  THEY ALSO DO NOT REPORT WEATHER SUCH
AS PRECIPITATION OR FOG.

IAZ001>003-012>014-020>022-031>034-043>046-280200-
   NORTHWEST IOWA

CITY           SKY/WX    TMP DP  RH WIND       PRES   REMARKS
CARROLL *      PTCLDY    75  59  57 S17G25    29.85R
CHEROKEE *     CLEAR     75  59  57 S17G28    29.78F
DENISON *      MOCLDY    75  63  64 S14G24    29.84S
LE MARS *      CLOUDY    77  61  57 MISG      29.74F
ORANGE CITY *  SUNNY     75  61  60 S18G24    29.75F
SHELDON *      CLEAR     75  57  53 S21G32    29.74F
SIOUX CITY     MOSUNNY   78  64  61 S16G28    29.74F HX  80
SPENCER        CLEAR     76  55  48 S18G31    29.80F
$$

IAZ055>058-069>071-079>083-090>094-280200-
   SOUTHWEST IOWA

CITY           SKY/WX    TMP DP  RH WIND       PRES   REMARKS
ATLANTIC *     MOCLDY    77  63  61 S15G23    29.84F
AUDUBON *      MOCLDY    75  63  64 S15G21    29.86S
CLARINDA *     PTCLDY    77  64  65 S13       29.87F
COUNCIL BLFS * PTCLDY    75  66  73 S17G23    29.81F
CRESTON *      CLOUDY    73  61  64 S16G24    29.90S
HARLAN  *      PTCLDY    75  63  64 S15G23    29.86S
LAMONI         CLOUDY    75  60  59 S9        29.91F
RED OAK *      PTCLDY    77  64  65 SE14G23   29.84F
SHENANDOAH *   CLEAR     77  64  65 SE12G21   29.84S
$$

IAZ047>049-059>061-072>074-084-280200-
   CENTRAL IOWA

CITY           SKY/WX    TMP DP  RH WIND       PRES   REMARKS
AMES           CLEAR     74  56  53 SE13      29.88F
ANKENY *       CLEAR     75  55  50 SE13      29.89F
BOONE *        CLEAR     75  55  50 SE12      29.87S
CHARITON *     MOCLDY    75  55  50 S12G20    29.91F
DES MOINES     MOCLDY    76  55  48 SE15      29.89F
GRINNELL*      CLEAR     73  50  44 SE10      29.94F
KNOXVILLE *    CLEAR     73  54  49 SE10G16   29.90F
MARSHALLTOWN   CLEAR     74  49  41 S14       29.90F
NEWTON *       CLEAR     73  52  46 S10       29.91F
PELLA *        CLEAR     75  51  43 SE8       29.93F
PERRY *          N/A     76  55  47 S14G20    29.87S
$$

IAZ004>006-015-016-023>025-035-036-280200-
   NORTH CENTRAL IOWA

CITY           SKY/WX    TMP DP  RH WIND       PRES   REMARKS
ALGONA *       CLEAR     73  50  43 S15G22    29.84F
CLARION *        N/A     73  50  43 S17G25    29.86F
ESTHERVILLE    CLEAR     73  52  47 S16       29.81F
FORT DODGE *   CLEAR     75  50  41 S13       29.87R
MASON CITY     CLOUDY    72  45  37 S17       29.90S
FOREST CITY *    N/A     73  32  21 S16       29.87S
WEBSTER CITY * CLOUDY    73  54  49 SE15G22   29.84F
IOWA FALLS *     N/A     74  50  42 S14G20    29.91S
$$

IAZ007>011-017>019-026>030-037>042-050>054-066-280200-
   NORTHEAST IOWA

CITY           SKY/WX    TMP DP  RH WIND       PRES   REMARKS
CEDAR RAPIDS   CLEAR     70  49  47 S7        29.94F
CHARLES CITY * CLOUDY    72  43  35 S10G18    29.91S
CLINTON *      CLEAR     68  48  48 S8        30.00F
DECORAH *      PTCLDY    68  48  49 S7G13     29.92F
DUBUQUE        CLEAR     67  48  50 S8        29.98F
MONTICELLO *   CLEAR     70  48  46 SE8       29.96F
OELWEIN *      PTCLDY    70  46  43 S10       29.94F
WATERLOO       PTCLDY    71  45  39 S9        29.90F
$$

IAZ064-065-067-068-078-280200-
   EAST CENTRAL IOWA

CITY           SKY/WX    TMP DP  RH WIND       PRES   REMARKS
IOWA CITY      CLEAR     72  48  42 SE10      29.97F
MT. PLEASANT * CLEAR     73  47  40 SE7       29.98S
MUSCATINE *    CLEAR     73  46  38 SE6G12    29.98F
QUAD CITIES    CLEAR     70  48  45 SE6       29.99F
$$

IAZ062-063-075>077-085>089-095>099-280200-
   SOUTHEAST IOWA

CITY           SKY/WX    TMP DP  RH WIND       PRES   REMARKS
BURLINGTON     CLEAR     71  52  50 S7        29.99S
FAIRFIELD *    CLEAR     73  50  43 SE8G16    29.96S
FORT MADISON * CLEAR     73  52  46 SE5       29.99F
KEOKUK *       PTCLDY    73  52  46 SE7       29.98S
OSKALOOSA *      N/A     73  51  46 S8        29.94F
OTTUMWA        CLOUDY    74  50  42 S10       29.94F
WASHINGTON *   CLEAR     72  50  46 SE9       29.98F
$$

ABBREVIATIONS USED IN REMARKS
   TC - TEMPERATURES IN CELSIUS
  WCI - WIND CHILL INDEX
   HX - HEAT INDEX
  VSB - VISIBILITY
$$





USA.gov is the U.S. government's official web portal to all federal, state and local government web resources and services.